| time (UTC) | temp F | wind direction | speed MPH | gust MPH | rain 1hr in | rain 24hr in | rain mn in | humidity % | barometer mb |
| 20260507033815 | 78 | 131 | 0.0 | 2.0 | 0.00 | 0.00 | 0.00 | 64 | 1017.0 |
| 20260507033321 | 78 | 87 | 0.0 | 1.0 | 0.00 | 0.00 | 0.00 | 64 | 1017.0 |
| 20260507033008 | 77 | 87 | 0.0 | 1.0 | 0.00 | 0.00 | 0.00 | 64 | 1017.0 |
| 20260507032823 | 78 | 85 | 0.0 | 1.0 | 0.00 | 0.00 | 0.00 | 64 | 1017.1 |
| 20260507032330 | 78 | 85 | 0.0 | 2.0 | 0.00 | 0.00 | 0.00 | 64 | 1017.1 |
| 20260507031836 | 78 | 86 | 1.0 | 2.0 | 0.00 | 0.00 | 0.00 | 64 | 1017.2 |
| 20260507031555 | 78 | 81 | 0.0 | 1.0 | 0.00 | 0.00 | 0.00 | 64 | 1017.2 |
| 20260507031345 | 78 | 89 | 0.0 | 1.0 | 0.00 | 0.00 | 0.00 | 63 | 1017.2 |
| 20260507030824 | 78 | 89 | 0.0 | 1.0 | 0.00 | 0.00 | 0.00 | 63 | 1017.1 |
| 20260507030329 | 78 | 89 | 0.0 | 3.0 | 0.00 | 0.00 | 0.00 | 63 | 1017.1 |
| 20260507030010 | 78 | 96 | 0.0 | 3.0 | 0.00 | 0.00 | 0.00 | 63 | 1017.0 |
| 20260507025816 | 78 | 82 | 0.0 | 3.0 | 0.00 | 0.00 | 0.00 | 63 | 1017.0 |
| 20260507025323 | 79 | 84 | 1.0 | 3.0 | 0.00 | 0.00 | 0.00 | 63 | 1017.0 |
| 20260507024822 | 79 | 79 | 0.0 | 2.0 | 0.00 | 0.00 | 0.00 | 62 | 1017.0 |
| 20260507024607 | 78 | 82 | 0.0 | 2.0 | 0.00 | 0.00 | 0.00 | 62 | 1017.0 |
| 20260507024323 | 79 | 107 | 1.0 | 2.0 | 0.00 | 0.00 | 0.00 | 62 | 1016.9 |
| 20260507023831 | 79 | 82 | 1.0 | 2.0 | 0.00 | 0.00 | 0.00 | 62 | 1016.8 |
| 20260507023338 | 79 | 85 | 0.0 | 2.0 | 0.00 | 0.00 | 0.00 | 62 | 1016.9 |
| 20260507023040 | 78 | 85 | 0.0 | 2.0 | 0.00 | 0.00 | 0.00 | 62 | 1016.9 |
| 20260507022843 | 79 | 101 | 0.0 | 2.0 | 0.00 | 0.00 | 0.00 | 62 | 1016.9 |
| 20260507022324 | 79 | 78 | 1.0 | 2.0 | 0.00 | 0.00 | 0.00 | 61 | 1016.9 |
| 20260507021830 | 79 | 79 | 1.0 | 3.0 | 0.00 | 0.00 | 0.00 | 61 | 1016.8 |
| 20260507021526 | 79 | 85 | 1.0 | 3.0 | 0.00 | 0.00 | 0.00 | 61 | 1016.9 |
| 20260507021316 | 79 | 82 | 1.0 | 3.0 | 0.00 | 0.00 | 0.00 | 61 | 1017.0 |
| 20260507020817 | 79 | 82 | 0.0 | 3.0 | 0.00 | 0.00 | 0.00 | 61 | 1016.9 |
| 20260507020317 | 79 | 89 | 2.0 | 3.0 | 0.00 | 0.00 | 0.00 | 61 | 1016.9 |
| 20260507020027 | 79 | 101 | 0.0 | 3.0 | 0.00 | 0.00 | 0.00 | 61 | 1016.9 |
| 20260507015825 | 79 | 90 | 1.0 | 3.0 | 0.00 | 0.00 | 0.00 | 61 | 1016.8 |
| 20260507015329 | 79 | 93 | 0.0 | 4.0 | 0.00 | 0.00 | 0.00 | 61 | 1016.8 |
| 20260507014923 | 80 | 99 | 2.0 | 4.0 | 0.00 | 0.00 | 0.00 | 61 | 1016.8 |
| 20260507014539 | 79 | 72 | 1.0 | 4.0 | 0.00 | 0.00 | 0.00 | 61 | 1016.8 |
| 20260507014322 | 80 | 99 | 2.0 | 4.0 | 0.00 | 0.00 | 0.00 | 61 | 1016.8 |
| 20260507013826 | 79 | 101 | 2.0 | 3.0 | 0.00 | 0.00 | 0.00 | 62 | 1016.7 |
| 20260507013330 | 80 | 66 | 1.0 | 3.0 | 0.00 | 0.00 | 0.00 | 61 | 1016.8 |
| 20260507013034 | 79 | 91 | 0.0 | 3.0 | 0.00 | 0.00 | 0.00 | 61 | 1016.8 |
| 20260507012831 | 80 | 104 | 1.0 | 3.0 | 0.00 | 0.00 | 0.00 | 61 | 1016.7 |
| 20260507012336 | 80 | 105 | 0.0 | 4.0 | 0.00 | 0.00 | 0.00 | 61 | 1016.7 |
| 20260507011821 | 80 | 88 | 0.0 | 2.0 | 0.00 | 0.00 | 0.00 | 61 | 1016.8 |
| 20260507011534 | 79 | 82 | 1.0 | 4.0 | 0.00 | 0.00 | 0.00 | 61 | 1016.7 |
| 20260507011325 | 80 | 113 | 1.0 | 4.0 | 0.00 | 0.00 | 0.00 | 62 | 1016.7 |
| 20260507010830 | 80 | 77 | 1.0 | 3.0 | 0.00 | 0.00 | 0.00 | 62 | 1016.8 |
| 20260507010335 | 80 | 73 | 1.0 | 3.0 | 0.00 | 0.00 | 0.00 | 61 | 1016.8 |
| 20260507010005 | 79 | 98 | 0.0 | 2.0 | 0.00 | 0.00 | 0.00 | 61 | 1016.8 |
| 20260507005817 | 80 | 65 | 1.0 | 2.0 | 0.00 | 0.00 | 0.00 | 61 | 1016.9 |
| 20260507005322 | 80 | 88 | 1.0 | 4.0 | 0.00 | 0.00 | 0.00 | 61 | 1016.8 |
| 20260507004825 | 80 | 91 | 2.0 | 4.0 | 0.00 | 0.00 | 0.00 | 61 | 1016.7 |
| 20260507004555 | 79 | 79 | 1.0 | 4.0 | 0.00 | 0.00 | 0.00 | 60 | 1016.8 |
| 20260507004323 | 80 | 79 | 1.0 | 4.0 | 0.00 | 0.00 | 0.00 | 60 | 1016.8 |
| 20260507003828 | 80 | 48 | 1.0 | 5.0 | 0.00 | 0.00 | 0.00 | 60 | 1016.8 |
| 20260507003340 | 80 | 77 | 2.0 | 5.0 | 0.00 | 0.00 | 0.00 | 60 | 1016.7 |
| 20260507003031 | 80 | 86 | 2.0 | 5.0 | 0.00 | 0.00 | 0.00 | 59 | 1016.6 |
| 20260507002843 | 80 | 65 | 1.0 | 5.0 | 0.00 | 0.00 | 0.00 | 59 | 1016.6 |
| 20260507002322 | 80 | 104 | 3.0 | 5.0 | 0.00 | 0.00 | 0.00 | 59 | 1016.6 |
| 20260507001820 | 80 | 72 | 2.0 | 7.0 | 0.00 | 0.00 | 0.00 | 59 | 1016.7 |
| 20260507001545 | 80 | 83 | 1.0 | 7.0 | 0.00 | 0.00 | 0.00 | 59 | 1016.7 |
| 20260507001318 | 81 | 68 | 2.0 | 7.0 | 0.00 | 0.00 | 0.00 | 59 | 1016.7 |
| 20260507000825 | 81 | 29 | 1.0 | 5.0 | 0.00 | 0.00 | 0.00 | 58 | 1016.6 |
| 20260507000343 | 81 | 48 | 3.0 | 5.0 | 0.00 | 0.00 | 0.00 | 58 | 1016.6 |
| 20260507000057 | 80 | 63 | 2.0 | 6.0 | 0.00 | 0.00 | 0.00 | 58 | 1016.6 |
| 20260506235826 | 81 | 82 | 4.0 | 7.0 | 0.00 | 0.00 | 0.00 | 57 | 1016.7 |
| 20260506235331 | 81 | 60 | 3.0 | 7.0 | 0.00 | 0.00 | 0.00 | 56 | 1016.6 |
| 20260506234813 | 81 | 46 | 3.0 | 8.0 | 0.00 | 0.00 | 0.00 | 55 | 1016.6 |
| 20260506234501 | 81 | 54 | 0.0 | 8.0 | 0.00 | 0.00 | 0.00 | 56 | 1016.5 |
| 20260506234325 | 81 | 52 | 3.0 | 8.0 | 0.00 | 0.00 | 0.00 | 56 | 1016.5 |
| 20260506233851 | 82 | 85 | 4.0 | 6.0 | 0.00 | 0.00 | 0.00 | 55 | 1016.5 |
| 20260506233334 | 82 | 81 | 3.0 | 6.0 | 0.00 | 0.00 | 0.00 | 55 | 1016.4 |
| 20260506233025 | 81 | 68 | 2.0 | 9.0 | 0.00 | 0.00 | 0.00 | 54 | 1016.3 |
| 20260506232818 | 82 | 57 | 2.0 | 9.0 | 0.00 | 0.00 | 0.00 | 54 | 1016.4 |
| 20260506232324 | 82 | 57 | 3.0 | 9.0 | 0.00 | 0.00 | 0.00 | 53 | 1016.4 |
| 20260506231824 | 82 | 82 | 4.0 | 8.0 | 0.00 | 0.00 | 0.00 | 50 | 1016.3 |
| 20260506231531 | 82 | 96 | 2.0 | 9.0 | 0.00 | 0.00 | 0.00 | 52 | 1016.3 |
| 20260506231329 | 82 | 10 | 2.0 | 9.0 | 0.00 | 0.00 | 0.00 | 54 | 1016.4 |
| 20260506230833 | 82 | 114 | 5.0 | 9.0 | 0.00 | 0.00 | 0.00 | 53 | 1016.3 |
| 20260506230319 | 82 | 108 | 2.0 | 7.0 | 0.00 | 0.00 | 0.00 | 58 | 1016.4 |
| 20260506230039 | 82 | 89 | 3.0 | 9.0 | 0.00 | 0.00 | 0.00 | 58 | 1016.4 |
| 20260506225853 | 82 | 27 | 3.0 | 9.0 | 0.00 | 0.00 | 0.00 | 57 | 1016.3 |
| 20260506225314 | 82 | 66 | 3.0 | 8.0 | 0.00 | 0.00 | 0.00 | 60 | 1016.2 |
| 20260506224818 | 82 | 101 | 3.0 | 8.0 | 0.00 | 0.00 | 0.00 | 60 | 1016.3 |
| 20260506224517 | 82 | 58 | 4.0 | 8.0 | 0.00 | 0.00 | 0.00 | 60 | 1016.2 |
| 20260506224323 | 82 | 91 | 4.0 | 7.0 | 0.00 | 0.00 | 0.00 | 60 | 1016.2 |
| 20260506223821 | 83 | 55 | 2.0 | 7.0 | 0.00 | 0.00 | 0.00 | 63 | 1016.3 |
| 20260506223349 | 83 | 39 | 3.0 | 9.0 | 0.00 | 0.00 | 0.00 | 62 | 1016.3 |
| 20260506223028 | 83 | 65 | 3.0 | 9.0 | 0.00 | 0.00 | 0.00 | 63 | 1016.2 |
| 20260506222832 | 83 | 101 | 3.0 | 9.0 | 0.00 | 0.00 | 0.00 | 62 | 1016.2 |
| 20260506222334 | 83 | 53 | 2.0 | 7.0 | 0.00 | 0.00 | 0.00 | 62 | 1016.1 |
| 20260506221838 | 84 | 57 | 3.0 | 7.0 | 0.00 | 0.00 | 0.00 | 61 | 1016.1 |
| 20260506221506 | 83 | 56 | 3.0 | 7.0 | 0.00 | 0.00 | 0.00 | 61 | 1015.9 |
| 20260506221318 | 83 | 96 | 3.0 | 7.0 | 0.00 | 0.00 | 0.00 | 58 | 1015.9 |
| 20260506220841 | 83 | 58 | 2.0 | 11.0 | 0.00 | 0.00 | 0.00 | 63 | 1015.8 |
| 20260506220353 | 84 | 31 | 2.0 | 11.0 | 0.00 | 0.00 | 0.00 | 61 | 1015.9 |
| 20260506220027 | 83 | 90 | 1.0 | 8.0 | 0.00 | 0.00 | 0.00 | 61 | 1015.8 |
| 20260506215818 | 84 | 85 | 1.0 | 8.0 | 0.00 | 0.00 | 0.00 | 60 | 1015.8 |
| 20260506215321 | 84 | 58 | 4.0 | 9.0 | 0.00 | 0.00 | 0.00 | 61 | 1015.8 |
| 20260506214826 | 84 | 86 | 5.0 | 9.0 | 0.00 | 0.00 | 0.00 | 60 | 1015.8 |
| 20260506214527 | 84 | 131 | 4.0 | 9.0 | 0.00 | 0.00 | 0.00 | 57 | 1015.7 |
| 20260506214349 | 84 | 82 | 5.0 | 9.0 | 0.00 | 0.00 | 0.00 | 58 | 1015.8 |
| 20260506213812 | 85 | 45 | 3.0 | 9.0 | 0.00 | 0.00 | 0.00 | 59 | 1015.8 |
| 20260506213317 | 85 | 92 | 3.0 | 9.0 | 0.00 | 0.00 | 0.00 | 60 | 1015.7 |
| 20260506213006 | 84 | 132 | 4.0 | 9.0 | 0.00 | 0.00 | 0.00 | 58 | 1015.5 |
| 20260506212821 | 85 | 103 | 3.0 | 9.0 | 0.00 | 0.00 | 0.00 | 60 | 1015.6 |
| 20260506212326 | 85 | 46 | 3.0 | 8.0 | 0.00 | 0.00 | 0.00 | 58 | 1015.9 |
| 20260506211823 | 85 | 65 | 5.0 | 9.0 | 0.00 | 0.00 | 0.00 | 57 | 1015.7 |
| 20260506211556 | 85 | 96 | 3.0 | 9.0 | 0.00 | 0.00 | 0.00 | 56 | 1015.6 |
| 20260506211323 | 86 | 79 | 6.0 | 9.0 | 0.00 | 0.00 | 0.00 | 55 | 1015.5 |
| 20260506210829 | 85 | 66 | 4.0 | 9.0 | 0.00 | 0.00 | 0.00 | 56 | 1015.5 |
| 20260506210312 | 86 | 62 | 3.0 | 10.0 | 0.00 | 0.00 | 0.00 | 55 | 1015.6 |
| 20260506210048 | 85 | 82 | 3.0 | 10.0 | 0.00 | 0.00 | 0.00 | 56 | 1015.5 |
| 20260506205847 | 85 | 104 | 4.0 | 10.0 | 0.00 | 0.00 | 0.00 | 55 | 1015.5 |
| 20260506205324 | 86 | 101 | 4.0 | 9.0 | 0.00 | 0.00 | 0.00 | 56 | 1015.4 |
| 20260506204828 | 86 | 47 | 4.0 | 11.0 | 0.00 | 0.00 | 0.00 | 56 | 1015.5 |
| 20260506204516 | 85 | 95 | 3.0 | 11.0 | 0.00 | 0.00 | 0.00 | 55 | 1015.5 |
| 20260506204313 | 86 | 91 | 5.0 | 11.0 | 0.00 | 0.00 | 0.00 | 54 | 1015.5 |
| 20260506203818 | 86 | 48 | 4.0 | 9.0 | 0.00 | 0.00 | 0.00 | 54 | 1015.6 |
| 20260506203322 | 86 | 39 | 3.0 | 10.0 | 0.00 | 0.00 | 0.00 | 56 | 1015.6 |
| 20260506203014 | 85 | 60 | 2.0 | 10.0 | 0.00 | 0.00 | 0.00 | 57 | 1015.6 |
| 20260506202826 | 86 | 84 | 5.0 | 10.0 | 0.00 | 0.00 | 0.00 | 56 | 1015.6 |
| 20260506202324 | 86 | 72 | 4.0 | 10.0 | 0.00 | 0.00 | 0.00 | 54 | 1015.8 |
| 20260506201823 | 86 | 140 | 6.0 | 10.0 | 0.00 | 0.00 | 0.00 | 52 | 1015.9 |
| 20260506201508 | 87 | 79 | 5.0 | 9.0 | 0.00 | 0.00 | 0.00 | 52 | 1015.8 |
| 20260506201347 | 87 | 77 | 4.0 | 9.0 | 0.00 | 0.00 | 0.00 | 51 | 1015.8 |
| 20260506200832 | 88 | 58 | 5.0 | 9.0 | 0.00 | 0.00 | 0.00 | 51 | 1015.8 |
| 20260506200333 | 88 | 53 | 2.0 | 10.0 | 0.00 | 0.00 | 0.00 | 51 | 1015.8 |
| 20260506200013 | 87 | 50 | 3.0 | 10.0 | 0.00 | 0.00 | 0.00 | 50 | 1015.8 |
| 20260506195816 | 88 | 88 | 4.0 | 10.0 | 0.00 | 0.00 | 0.00 | 51 | 1015.9 |
| 20260506195340 | 88 | 70 | 2.0 | 5.0 | 0.00 | 0.00 | 0.00 | 50 | 1016.0 |
| 20260506194845 | 88 | 38 | 2.0 | 9.0 | 0.00 | 0.00 | 0.00 | 49 | 1015.9 |
| 20260506194520 | 87 | 98 | 2.0 | 9.0 | 0.00 | 0.00 | 0.00 | 50 | 1015.9 |
| 20260506194330 | 88 | 84 | 5.0 | 9.0 | 0.00 | 0.00 | 0.00 | 48 | 1015.9 |
| 20260506193814 | 88 | 53 | 2.0 | 9.0 | 0.00 | 0.00 | 0.00 | 50 | 1016.0 |
| 20260506193320 | 87 | 94 | 4.0 | 9.0 | 0.00 | 0.00 | 0.00 | 47 | 1016.2 |
| 20260506193021 | 87 | 75 | 3.0 | 9.0 | 0.00 | 0.00 | 0.00 | 50 | 1016.2 |
| 20260506192824 | 88 | 75 | 4.0 | 8.0 | 0.00 | 0.00 | 0.00 | 50 | 1016.2 |
| 20260506192348 | 88 | 120 | 4.0 | 8.0 | 0.00 | 0.00 | 0.00 | 50 | 1016.2 |
| 20260506191824 | 88 | 61 | 3.0 | 9.0 | 0.00 | 0.00 | 0.00 | 50 | 1016.2 |
| 20260506191535 | 87 | 89 | 4.0 | 10.0 | 0.00 | 0.00 | 0.00 | 49 | 1016.3 |
| 20260506191331 | 88 | 115 | 4.0 | 10.0 | 0.00 | 0.00 | 0.00 | 48 | 1016.3 |
| 20260506190829 | 88 | 108 | 5.0 | 10.0 | 0.00 | 0.00 | 0.00 | 49 | 1016.3 |
| 20260506190333 | 88 | 111 | 3.0 | 8.0 | 0.00 | 0.00 | 0.00 | 49 | 1016.3 |
| 20260506190034 | 88 | 56 | 3.0 | 8.0 | 0.00 | 0.00 | 0.00 | 48 | 1016.4 |
| 20260506185838 | 88 | 87 | 2.0 | 8.0 | 0.00 | 0.00 | 0.00 | 49 | 1016.4 |
| 20260506185323 | 88 | 76 | 4.0 | 8.0 | 0.00 | 0.00 | 0.00 | 51 | 1016.4 |
| 20260506184827 | 88 | 18 | 3.0 | 10.0 | 0.00 | 0.00 | 0.00 | 51 | 1016.6 |
| 20260506184516 | 87 | 96 | 2.0 | 10.0 | 0.00 | 0.00 | 0.00 | 52 | 1016.6 |
| 20260506184325 | 87 | 13 | 3.0 | 10.0 | 0.00 | 0.00 | 0.00 | 52 | 1016.5 |
| 20260506183823 | 87 | 54 | 4.0 | 10.0 | 0.00 | 0.00 | 0.00 | 50 | 1016.5 |
| 20260506183321 | 88 | 81 | 3.0 | 8.0 | 0.00 | 0.00 | 0.00 | 53 | 1016.5 |
| 20260506183050 | 87 | 83 | 4.0 | 8.0 | 0.00 | 0.00 | 0.00 | 53 | 1016.7 |
| 20260506182826 | 88 | 70 | 3.0 | 7.0 | 0.00 | 0.00 | 0.00 | 54 | 1016.8 |
| 20260506182352 | 87 | 55 | 2.0 | 12.0 | 0.00 | 0.00 | 0.00 | 53 | 1016.7 |
| 20260506181815 | 87 | 134 | 6.0 | 12.0 | 0.00 | 0.00 | 0.00 | 53 | 1016.7 |
| 20260506181515 | 87 | 98 | 5.0 | 9.0 | 0.00 | 0.00 | 0.00 | 53 | 1016.6 |
| 20260506181320 | 87 | 82 | 3.0 | 7.0 | 0.00 | 0.00 | 0.00 | 54 | 1016.7 |
| 20260506180825 | 87 | 100 | 3.0 | 11.0 | 0.00 | 0.00 | 0.00 | 56 | 1016.8 |
| 20260506180323 | 86 | 82 | 4.0 | 11.0 | 0.00 | 0.00 | 0.00 | 54 | 1016.9 |
| 20260506180048 | 86 | 86 | 5.0 | 11.0 | 0.00 | 0.00 | 0.00 | 53 | 1016.9 |
| 20260506175845 | 87 | 78 | 4.0 | 10.0 | 0.00 | 0.00 | 0.00 | 54 | 1016.8 |
| 20260506175329 | 87 | 89 | 4.0 | 9.0 | 0.00 | 0.00 | 0.00 | 56 | 1016.8 |
| 20260506174833 | 87 | 57 | 4.0 | 10.0 | 0.00 | 0.00 | 0.00 | 54 | 1017.0 |
| 20260506174529 | 86 | 88 | 2.0 | 10.0 | 0.00 | 0.00 | 0.00 | 54 | 1017.1 |
| 20260506174320 | 87 | 98 | 5.0 | 10.0 | 0.00 | 0.00 | 0.00 | 56 | 1017.2 |
| 20260506173823 | 88 | 67 | 4.0 | 7.0 | 0.00 | 0.00 | 0.00 | 56 | 1017.1 |
| 20260506173328 | 87 | 103 | 3.0 | 9.0 | 0.00 | 0.00 | 0.00 | 56 | 1017.1 |
| 20260506173032 | 87 | 86 | 4.0 | 9.0 | 0.00 | 0.00 | 0.00 | 56 | 1017.1 |
| 20260506172833 | 87 | 117 | 3.0 | 8.0 | 0.00 | 0.00 | 0.00 | 57 | 1017.2 |
| 20260506172338 | 88 | 60 | 4.0 | 8.0 | 0.00 | 0.00 | 0.00 | 55 | 1017.4 |
| 20260506171822 | 87 | 87 | 3.0 | 8.0 | 0.00 | 0.00 | 0.00 | 55 | 1017.4 |
| 20260506171530 | 86 | 51 | 1.0 | 9.0 | 0.00 | 0.00 | 0.00 | 56 | 1017.3 |
| 20260506171347 | 87 | 75 | 3.0 | 9.0 | 0.00 | 0.00 | 0.00 | 55 | 1017.4 |